Regional Weather Roundup
Issued by NWS Grand Forks, ND

Home | Current Version | Previous Version | Graphics & Text | Print | Product List | Glossary On
Versions: 1 2 3 4 5 6 7 8 9 10 11 12 13 14 15 16 17 18 19 20 21 22 23 24 25 26 27 28 29 30 31 32 33 34 35 36 37 38 39 40 41 42 43 44 45 46 47 48 49 50
000
ASUS43 KFGF 010310
RWRFGF
PRAIRIE TO PINES  WEATHER ROUNDUP
NATIONAL WEATHER SERVICE EASTERN NORTH DAKOTA/GRAND FORKS ND
1000 PM CDT FRI JUL 31 2015

 **SATELLITE DATA USED TO AUGMENT SKY COVER AT AUTOMATED STATIONS**
 *****  WEATHER ACROSS EASTERN NORTH DAKOTA  *****

CITY           SKY/WX    TMP DP  RH WIND       PRES   REMARKS
GRAND FORKS    CLEAR     63  55  75 CALM      29.97R
GRAND FRKS AFB CLEAR     61  54  77 W6        29.98R
GRAND FRKS NWS   N/A     68 N/A N/A NW2         N/A
DEVILS LAKE    CLEAR     66  52  59 NW7       30.00S
FARGO          CLEAR     71  58  63 NW3       29.98R
WAHPETON ARPT  NOT AVBL
$$

 ***** WEATHER ACROSS CENTRAL AND WESTERN NORTH DAKOTA  *****

CITY           SKY/WX    TMP DP  RH WIND       PRES   REMARKS
BISMARCK       CLEAR     71  56  58 NE7       30.03S
MINOT          CLEAR     66  55  67 N3        30.01S
JAMESTOWN      CLEAR     66  60  81 N3        30.02R
MINOT AFB      CLEAR     69  51  52 CALM      30.00S
GARRISON         N/A     69  58  67 CALM      30.02S
WILLISTON      CLEAR     76  50  40 NE7       30.01R
DICKINSON      CLEAR     66  51  58 E7        30.03R
HETTINGER      CLEAR     72  48  42 SE7       30.06S
$$

 *****  OTHER AIRPORT OBSERVATIONS IN OUR AREA  *****

CITY           SKY/WX    TMP DP  RH WIND       PRES   REMARKS
WALHALLA       FAIR      66  54  63 MISG      29.97S
GRAFTON AIRPOR FAIR      66  59  77 W6        29.97S
VALLEY CITY AR FAIR      70  59  68 N3        30.02R
CANDO          NOT AVBL
CAVALIER APRT  FAIR      63  55  77 W5        29.96S
GWINNER        FAIR      72  63  73 NW8       30.00R
SHEYENNE NWR     N/A     69  61  76 N6        29.95S
ROLLA          FAIR      57  54  88 NW6       30.04S
 ***** THE ABOVE OBSERVATIONS ARE NON NWS ARE NOT QUALITY
       CONTROLLED AND MAY MIS-REPORT RAIN FOR SNOW...
$$

  *****  WEATHER ACROSS NORTHERN MINNESOTA  *****

CITY           SKY/WX    TMP DP  RH WIND       PRES   REMARKS
FLAG ISLAND    CLEAR     68  52  56 W8        29.91R
WARROAD        CLEAR     64  54  68 W5        29.95R
ROSEAU         CLEAR     64  55  72 W5        29.95S
HALLOCK        CLEAR     63  55  77 W6        29.95S
THF RVR FALLS  CLEAR     64  54  68 CALM      29.97S
BAUDETTE       CLEAR     63  49  60 W7        29.93R
WASKISH        CLEAR     68  54  60 W8        29.95S
CROOKSTON      CLEAR     63  55  77 CALM      29.98R
$$
  *****  WEATHER ACROSS CENTRAL AND WEST MINNESOTA  *****

CITY           SKY/WX    TMP DP  RH WIND       PRES   REMARKS
FOSSTON        CLEAR     59  50  72 CALM      29.99R
BEMIDJI        CLEAR     61  51  67 W3        29.98R
PARK RAPIDS    CLEAR     62  53  72 W3        29.99R
ELBOW LAKE     FAIR      70  64  81 CALM      29.99S
WADENA         CLEAR     63  55  77 CALM      29.99S
DETROIT LAKES  CLEAR     68  55  64 W5        30.01R
MOORHEAD       CLEAR     66  57  72 NW3       29.99R
FERGUS FALLS   CLEAR     72  61  68 CALM      29.98R
MORRIS MN      CLEAR     68  61  77 S6        29.99S
STAPLES        CLEAR     64  55  72 CALM      29.99R
$$
  *****  WEATHER ELSEWHERE ACROSS MINNESOTA  *****

CITY           SKY/WX    TMP DP  RH WIND       PRES   REMARKS
DULUTH         PTCLDY    62  49  62 W8        29.94R
INTRNTL FALLS  CLEAR     63  52  67 W6        29.91R
ELY            MOCLDY    59  55  88 CALM      29.92R
CLOQUET        CLEAR     64  46  52 W6        29.95S
WHEATON        CLEAR     64  61  88 CALM      30.00S
BRAINERD       CLEAR     70  52  52 W3        29.98R
HIBBING        CLEAR     65  48  54 W8        29.94R
ALEXANDRIA     CLEAR     68  59  73 W3        30.02R
SAINT CLOUD    CLEAR     65  57  75 SW6       29.99R
MINNEAPOLIS    CLEAR     75  55  49 W7        29.99R
$$

  *****  WEATHER ACROSS SOUTH DAKOTA  *****

CITY           SKY/WX    TMP DP  RH WIND       PRES   REMARKS
SIOUX FALLS    CLEAR     72  61  68 SW3       30.06S
BROOKINGS      CLEAR     70  59  68 S8        30.07R
WATERTOWN      CLEAR     70  63  78 S6        30.03R
HURON          CLEAR     75  56  51 S6        30.03R
SISSETON         N/A     68  64  87 SW5       29.98R
ABERDEEN       CLEAR     71  58  63 NW3       30.02R
MITCHELL       CLEAR     77  60  55 S3        30.05S
PIERRE         CLEAR     73  56  54 NE5       30.04R
MOBRIDGE       CLEAR     78  55  44 E9        30.01S
RAPID CITY     CLEAR     72  53  51 E9        30.10S
$$

  *****  SOME WEATHER IN NEARBY STATES *****

CITY           SKY/WX    TMP DP  RH WIND       PRES   REMARKS
GLASGOW MT     CLEAR     84  44  24 N5        29.97F
GREAT FALLS MT CLEAR     79  34  19 SE7       30.06S
CHEYENNE WY    PTCLDY    72  48  42 SE12      30.28S
SCOTTSBLUFF NE CLEAR     72  58  61 E7        30.14S
OMAHA NE       MOCLDY    78  74  87 N5        30.05R
DES MOINES IA  PTCLDY    79  62  56 E6        30.05R
DAVENPORT IA   CLEAR     65  60  84 W6        30.03R
CHICAGO IL     CLEAR     72  51  47 NW7       29.97R
EAU CLAIRE WI  CLEAR     65  53  65 SW3       29.97R
LA CROSSE WI   CLEAR     69  57  65 SE3       29.99R
$$

  *****  SOME NATIONAL WEATHER *****

CITY           SKY/WX    TMP DP  RH WIND       PRES   REMARKS
LA GUARDIA NY  CLEAR     84  54  35 SW7       29.82S
RALEIGH NC     PTCLDY    74  65  73 CALM      29.97R
ATLANTA GA     MOCLDY    81  62  52 NW9       29.98R
NEW ORLEANS LA PTCLDY    88  64  44 NE10      29.92R
OKLAHOMA CITY  CLOUDY    73  72  96 SE6       30.06F
ALBUQUERQUE NM CLOUDY    74  56  53 SE15      30.26S
SALT LAKE CITY PTCLDY    83  26  12 W6        30.10R
LOS ANGELES CA MOCLDY    71  67  87 W13       29.95R
BOISE ID       CLEAR     91  41  17 W5        30.00F
SEATTLE WA     CLEAR     84  41  21 N9        29.98S
$$

*** WEATHER ACROSS MANITOBA...SASKATCHEWAN AND ONTARIO ***
                ***ONTARIO***

CITY           SKY/WX    TMP DP  RH WIND       PRES   REMARKS
GERALDTON      MOCLDY    57  55  94 W7        29.75R
THUNDER BAY    LGT RAIN  61  57  88 SW9       29.83S
SIOUX LOOKOUT  MOCLDY    61  55  82 W7        29.86R
TORONTO        LGT RAIN  68  63  83 W8        29.79R
BIG TROUT LK   CLEAR     57  50  77 W7        29.66S
PICKLE LAKE    NOT AVBL
DRYDEN         MOCLDY    59  57  94 SW8       29.87S
KENORA         MOCLDY    64  55  72 NW8       29.91R
$$
                *** MANITOBA***

CITY           SKY/WX    TMP DP  RH WIND       PRES   REMARKS
BRANDON        PTCLDY    57  54  88 NW8       30.00S
DAUPHIN        CLEAR     59  54  82 W8        29.96R
ISLAND LAKE    PTCLDY    63  55  77 W13       29.75F
PILOT MOUND      N/A     63  54  72 W5          N/A
THE PAS        PTCLDY    64  52  63 VRB2      29.89S
THOMPSON       PTCLDY    61  54  77 W7        29.76F
WINNIPEG       PTCLDY    61  57  88 W6        29.94R
LYNN LAKE      MOCLDY    55  52  88 W5        29.83S
CHURCHILL      CLOUDY    55  50  82 NW10      29.61F
GILLAM         PTCLDY    63  54  72 NW12      29.67S
$$
                ***SASKATCHEWAN***

CITY           SKY/WX    TMP DP  RH WIND       PRES   REMARKS
ESTEVAN        PTCLDY    64  54  68 NE6       30.03S
KINDERSLEY     NOT AVBL
LLOYDMINSTER   MOCLDY    68  55  64 E5        29.94F
PRINCE ALBERT  MOCLDY    64  57  77 CALM      29.95S
REGINA         PTCLDY    66  54  63 S2        30.03S
YORKTON        CLEAR     64  54  68 W7        30.00F
N. BATTLEFORD  CLEAR     66  59  77 SE6       29.97F
LA RONGE       MOCLDY    72  46  40 NW12      29.90S
SASKATOON      PTCLDY    70  52  52 S5        30.00F
SWIFT CURRENT  CLEAR     70  55  60 SE9       30.03S
$$
NOTE: THESE ARE AUTOMATED STATIONS WITH LIMITED QUALITY CONTROL
      "FAIR" INDICATES FEW OR NO CLOUDS BELOW 12,000 FEET WITH NO
      SIGNIFICANT WEATHER AND/OR OBSTRUCTIONS TO VISIBILITY.
      SKY/WX - SKY CONDITION AND SIGNIFICANT WEATHER.
      TMP - AIR TEMPERATURE.    DP   - DEWPOINT TEMPERATURE.
      RH  - RELATIVE HUMIDITY.  PRES - PRESSURE.
      HX  - HEAT INDEX.         WCI  - WIND CHILL INDEX.
$



USA.gov is the U.S. government's official web portal to all federal, state and local government web resources and services.